[[{"header":{"parameterUnit":"m.s-1","parameterCategory":1,"la1":30.2991,"la2":30.254,"lo1":-89.0895,"lo2":-89.0444,"dy":0.0017,"dx":0.0017,"nx":28,"ny":28,"refTime":"2026-02-25T03:00:00:Z","depth":0,"parameterNumber":2,"parameterNumberName":"U-component_of_WINDS"},"data":[0,0,0,0,0,0,0,0,0,0,0,0,0,0,0,0,0,0,0,0,0,0,0,0,0,0,0,0,0,0,0,0,0,0,0,0,0,0,0,0,0,0,0,0,0,0,0,0,0,0,0,0,0,0,0,0,0,0,1.6489,1.6489,0,1.6478,1.6478,1.6478,1.6416,1.6414,1.6413,1.6411,1.6403,1.6404,1.6405,0,0,0,0,0,0,0,0,0,0,0,0,0,1.6459,1.6459,1.6489,1.6489,1.6489,1.6478,1.6478,1.6478,1.6416,1.6414,1.6412,1.6411,1.6403,1.6404,1.6405,0,0,0,0,0,0,0,0,0,0,0,0,0,1.6462,1.646,1.6489,1.6457,1.6454,1.6478,1.6478,1.6478,1.6416,1.6414,1.6412,1.641,1.6402,1.6404,1.6406,1.6461,0,0,1.6411,1.6412,0,0,0,0,0,0,0,0,1.6462,1.6463,1.6461,1.6459,1.6455,1.6446,1.6464,1.6472,1.6417,1.6431,1.6411,1.6409,1.6419,1.6419,1.6422,1.6461,1.646,1.6411,1.6412,1.6413,1.6413,0,0,0,0,0,0,0,1.6462,1.6463,1.6485,1.6462,1.6458,1.6443,1.6441,1.6465,1.6438,1.6429,1.6425,1.6424,1.6417,1.6421,1.6422,1.646,1.6411,1.6413,1.6414,1.6414,1.6543,1.6545,0,0,0,0,0,0,1.6466,1.6464,1.6485,1.6484,1.6453,1.6446,1.6443,1.6451,1.6437,1.6433,1.6426,1.6421,1.6419,1.642,1.6421,1.6485,1.6413,1.6414,1.6415,1.654,1.6543,1.6546,0,0,0,0,0,0,1.6465,1.6468,1.6485,1.6473,1.6474,1.6448,1.6458,1.6452,1.6456,1.6435,1.643,1.6435,1.6417,1.6419,1.6451,1.6484,1.6415,1.6417,1.6538,1.6541,1.6545,1.6613,0,0,0,0,0,0,1.6465,1.6469,1.6489,1.6474,1.6475,1.6515,1.646,1.6454,1.6459,1.6452,1.6442,1.6438,1.6416,1.6449,1.6453,1.6485,1.6418,1.6535,1.6539,1.6543,1.6607,1.6618,1.6627,0,0,0,0,0,1.6464,1.6509,1.649,1.6493,1.6499,1.6517,1.6518,1.6491,1.6461,1.6482,1.6468,1.6438,1.6479,1.6453,1.6457,1.649,1.6532,1.6538,1.6543,1.6603,1.6616,1.6627,0,0,0,0,0,0,1.653,1.6507,1.6485,1.6527,1.6524,1.6507,1.6532,1.6505,1.6512,1.6506,1.6473,1.6471,1.6508,1.6502,1.6473,1.6542,1.6501,1.6507,1.6545,1.6557,1.6567,1.6567,1.642,0,0,0,0,0,1.6549,1.6565,1.6544,1.6583,1.6582,1.6557,1.6564,1.6543,1.654,1.6539,1.6527,1.6526,1.6538,1.6547,1.6558,1.6606,1.6603,1.6631,1.664,1.6649,1.6655,1.668,1.6692,1.6563,1.6563,1.6563,0,0,1.659,1.6579,1.6591,1.6596,1.6591,1.6608,1.6557,1.6578,1.659,1.6542,1.6571,1.6563,1.6559,1.66,1.6617,1.6596,1.6689,1.6656,1.6662,1.6664,1.6686,1.6699,1.6709,1.6567,1.6566,1.6566,0,0,1.6672,1.6665,1.6696,1.6693,1.6686,1.6669,1.6677,1.6663,1.6655,1.6684,1.6648,1.6663,1.6685,1.6684,1.6686,1.6767,1.6739,1.6771,1.6823,1.6848,1.6858,1.6867,1.6896,1.6906,1.6777,1.6778,1.6778,0,1.6723,1.6747,1.6716,1.6738,1.6742,1.6698,1.6729,1.6727,1.6725,1.6729,1.6705,1.6731,1.6726,1.6765,1.6785,1.6788,1.6796,1.6773,1.6859,1.6867,1.6875,1.6902,1.6913,1.6782,1.6781,1.6781,1.678,0,1.681,1.6827,1.6853,1.6851,1.6857,1.6884,1.6858,1.6868,1.6846,1.6832,1.6862,1.6854,1.6861,1.6869,1.6849,1.6906,1.6893,1.6865,1.6822,1.6892,1.6917,1.6927,1.6787,1.6786,1.6785,1.6784,0,0,1.6933,1.6913,1.6923,1.6921,1.6911,1.6924,1.6949,1.6955,1.6965,1.6965,1.6985,1.7005,1.6978,1.6981,1.696,1.6982,1.7046,1.695,1.695,1.6969,1.7108,1.713,1.7142,1.7028,1.703,1.7031,1.7109,0,1.7011,1.7052,1.7025,1.7071,1.7086,1.7045,1.7067,1.7063,1.705,1.7062,1.7049,1.7063,1.7027,1.7028,1.7047,1.7034,1.7074,1.7028,1.7047,1.7048,1.7049,1.7155,1.7178,1.7251,1.7118,1.712,1.7121,0,1.7108,1.7111,1.7158,1.7144,1.7149,1.717,1.7173,1.7185,1.718,1.7169,1.7172,1.7146,1.717,1.7128,1.7162,1.7131,1.7137,1.7132,1.7134,1.7135,1.7089,1.7159,1.7274,1.7285,1.7136,1.7135,1.7134,0,1.7193,1.7209,1.7239,1.7239,1.7223,1.7238,1.7233,1.7225,1.7231,1.7234,1.7238,1.7245,1.7248,1.7255,1.7231,1.7203,1.7268,1.7224,1.726,1.7261,1.7275,1.7275,1.7394,1.728,1.728,1.7279,1.7279,0,1.7283,1.7314,1.7277,1.7295,1.7328,1.7297,1.7331,1.7321,1.7315,1.7331,1.7296,1.7312,1.728,1.7293,1.7275,1.7305,1.7308,1.73,1.7295,1.7303,1.7304,1.7307,1.7301,1.7282,1.7282,1.7281,1.7281,0,1.7384,1.736,1.739,1.7372,1.7369,1.7394,1.7379,1.7396,1.7381,1.7402,1.7405,1.7382,1.7395,1.7372,1.7384,1.7371,1.7414,1.7401,1.7415,1.7411,1.7448,1.7445,1.7573,1.7588,1.7465,1.7466,1.7467,0,1.7442,1.7464,1.7449,1.7457,1.7453,1.7466,1.7471,1.7442,1.7449,1.7444,1.7462,1.7472,1.7479,1.7503,1.7488,1.7496,1.7483,1.7527,1.7484,1.7492,1.7484,1.7483,1.7485,1.7536,1.7538,1.7539,1.754,0,1.7549,1.7536,1.7544,1.7549,1.7556,1.7558,1.7558,1.7567,1.7535,1.7545,1.7558,1.7563,1.7574,1.7585,1.759,1.7585,1.7558,1.7554,1.7562,1.7571,1.7578,1.7575,1.7439,1.7551,1.755,1.7549,1.7548,1.7548,1.763,1.7648,1.7639,1.765,1.7646,1.7647,1.7661,1.7648,1.7658,1.7664,1.7646,1.7663,1.7658,1.7661,1.7659,1.7672,1.7653,1.7666,1.7669,1.7673,1.7678,1.7576,1.7673,1.7673,1.7673,1.7672,1.7672,0,1.7735,1.7727,1.7737,1.7737,1.7746,1.7718,1.7717,1.7726,1.7741,1.7738,1.7745,1.776,1.777,1.7756,1.7764,1.7778,1.7765,1.7781,1.7779,1.7779,1.7695,1.7687,1.779,1.779,1.779,1.779,1.779,1.779,1.779,1.7818,1.7805,1.7831,1.7823,1.7839,1.784,1.7841,1.7838,1.7856,1.7864,1.7854,1.7847,1.7854,1.7863,1.7858,1.7863,1.7883,1.7874,1.7796,1.7785,1.7774,1.7765,1.7884,1.7884,1.7956,1.7957,1.7957]},{"header":{"parameterUnit":"m.s-1","parameterCategory":1,"la1":30.2991,"la2":30.254,"lo1":-89.0895,"lo2":-89.0444,"dy":0.0017,"dx":0.0017,"nx":28,"ny":28,"refTime":"2026-02-25T03:00:00:Z","depth":0,"parameterNumber":3,"parameterNumberName":"V-component_of_WINDS"},"data":[0,0,0,0,0,0,0,0,0,0,0,0,0,0,0,0,0,0,0,0,0,0,0,0,0,0,0,0,0,0,0,0,0,0,0,0,0,0,0,0,0,0,0,0,0,0,0,0,0,0,0,0,0,0,0,0,0,0,4.7168,4.7168,0,4.7221,4.7222,4.7222,4.7188,4.7187,4.7185,4.7184,4.7238,4.7241,4.7244,0,0,0,0,0,0,0,0,0,0,0,0,0,4.7037,4.704,4.7168,4.7168,4.7169,4.7221,4.7222,4.7222,4.7189,4.7187,4.7185,4.7183,4.7237,4.7241,4.7244,0,0,0,0,0,0,0,0,0,0,0,0,0,4.7093,4.7041,4.7168,4.7159,4.7158,4.7221,4.7222,4.7222,4.7189,4.7187,4.7184,4.7182,4.7236,4.724,4.7244,4.7319,0,0,4.7258,4.726,0,0,0,0,0,0,0,0,4.7089,4.7097,4.7159,4.7159,4.7159,4.7196,4.7195,4.7255,4.719,4.7177,4.7184,4.7181,4.7226,4.7231,4.7246,4.7321,4.7323,4.7258,4.7261,4.7263,4.7264,0,0,0,0,0,0,0,4.7086,4.7095,4.7189,4.716,4.716,4.7152,4.7157,4.7206,4.7214,4.7178,4.7176,4.7183,4.7225,4.7242,4.7247,4.7324,4.7258,4.7262,4.7265,4.7266,4.7464,4.7466,0,0,0,0,0,0,4.7083,4.7092,4.7187,4.719,4.7118,4.7156,4.7162,4.7186,4.7214,4.7215,4.7185,4.7181,4.7236,4.7242,4.7249,4.7338,4.7263,4.7267,4.7269,4.7461,4.7464,4.7467,0,0,0,0,0,0,4.708,4.7091,4.7185,4.7141,4.7152,4.7161,4.7188,4.7189,4.7205,4.7218,4.722,4.72,4.7234,4.7243,4.7302,4.734,4.7269,4.7273,4.7458,4.7462,4.7466,4.7517,0,0,0,0,0,0,4.7076,4.7091,4.7119,4.7141,4.7154,4.7237,4.7191,4.7191,4.7213,4.7208,4.7233,4.7235,4.7233,4.7295,4.7306,4.7344,4.7276,4.7455,4.746,4.7464,4.7512,4.7522,4.7531,0,0,0,0,0,4.7072,4.7131,4.7121,4.7132,4.719,4.7239,4.7247,4.7243,4.7216,4.7245,4.7253,4.7234,4.7333,4.7302,4.7313,4.7354,4.7452,4.7458,4.7464,4.7508,4.752,4.7531,0,0,0,0,0,0,4.7113,4.7134,4.7122,4.7191,4.7214,4.7234,4.727,4.7256,4.7287,4.7282,4.7275,4.7281,4.7343,4.7354,4.7318,4.7427,4.7389,4.7397,4.7418,4.743,4.7439,4.7436,4.728,0,0,0,0,0,4.713,4.7168,4.7184,4.7243,4.7255,4.7261,4.7282,4.7277,4.73,4.731,4.7323,4.7346,4.7382,4.7406,4.7441,4.7513,4.7518,4.7546,4.7556,4.7564,4.7571,4.7611,4.7624,4.7486,4.7486,4.7486,0,0,4.7165,4.7181,4.7206,4.7252,4.7269,4.7309,4.7269,4.7313,4.7343,4.7316,4.7373,4.7383,4.7409,4.7475,4.7505,4.7486,4.7611,4.7571,4.7577,4.7581,4.7619,4.7632,4.7644,4.749,4.749,4.7489,0,0,4.725,4.7266,4.7318,4.7336,4.7362,4.7365,4.7377,4.74,4.7406,4.7463,4.7444,4.7479,4.7542,4.7561,4.7579,4.7672,4.7656,4.7683,4.7733,4.7772,4.7783,4.7793,4.7827,4.7839,4.7691,4.7691,4.7691,0,4.7291,4.7351,4.7345,4.7391,4.7412,4.739,4.7442,4.746,4.7496,4.7511,4.7489,4.7568,4.7584,4.7655,4.7677,4.7692,4.7707,4.7681,4.7782,4.7792,4.7801,4.7833,4.7846,4.7694,4.7694,4.7693,4.7693,0,4.74,4.7442,4.748,4.7516,4.7541,4.759,4.7592,4.7618,4.7611,4.7616,4.7675,4.7693,4.773,4.7747,4.774,4.7817,4.7805,4.7783,4.7744,4.7817,4.7848,4.786,4.7699,4.7697,4.7696,4.7696,0,0,4.7514,4.7546,4.756,4.7577,4.7604,4.7636,4.7684,4.7721,4.7744,4.777,4.781,4.7863,4.7843,4.7864,4.7859,4.7893,4.7967,4.7867,4.7868,4.7886,4.8054,4.8072,4.8086,4.7956,4.7959,4.7961,4.8053,0,4.7601,4.7685,4.7681,4.776,4.7798,4.7778,4.782,4.7841,4.7848,4.7882,4.7888,4.7927,4.7897,4.7909,4.7942,4.7951,4.8001,4.7944,4.7994,4.7996,4.799,4.8102,4.812,4.8206,4.8064,4.8066,4.8068,0,4.7715,4.7745,4.7828,4.785,4.7866,4.7904,4.7938,4.797,4.7994,4.7996,4.802,4.8009,4.8058,4.8017,4.8085,4.8046,4.8066,4.8074,4.8077,4.8082,4.8037,4.8111,4.8233,4.8247,4.8086,4.8085,4.8083,0,4.7791,4.7852,4.7909,4.7923,4.7951,4.7978,4.799,4.8012,4.8035,4.8064,4.8079,4.8114,4.8133,4.8161,4.816,4.8131,4.8229,4.8188,4.8233,4.8233,4.8255,4.8254,4.8383,4.8266,4.8266,4.8266,4.8265,0,4.789,4.7942,4.7944,4.7979,4.8036,4.8031,4.8088,4.8097,4.8117,4.8154,4.8138,4.8173,4.817,4.8206,4.8205,4.8262,4.827,4.8274,4.8273,4.8276,4.8276,4.829,4.8284,4.8269,4.8268,4.8268,4.8267,0,4.7985,4.7988,4.8049,4.807,4.8077,4.8118,4.8136,4.8169,4.8174,4.8221,4.8232,4.824,4.8281,4.8283,4.833,4.833,4.8399,4.8391,4.8391,4.839,4.8435,4.8431,4.8579,4.8599,4.8468,4.8469,4.847,0,4.8048,4.8088,4.8113,4.8136,4.8151,4.8189,4.8212,4.8209,4.8234,4.8265,4.8295,4.8334,4.8366,4.8432,4.8443,4.8479,4.8472,4.8522,4.8478,4.8479,4.8475,4.8473,4.8477,4.8531,4.8532,4.8533,4.8534,0,4.8161,4.8161,4.8195,4.8231,4.8259,4.8286,4.8312,4.8332,4.8332,4.836,4.8402,4.8427,4.8475,4.8515,4.855,4.8563,4.8549,4.8548,4.856,4.8564,4.8563,4.8565,4.8416,4.8545,4.8544,4.8543,4.8542,4.8542,4.8243,4.8277,4.8301,4.8339,4.8358,4.8382,4.8415,4.8425,4.8459,4.8499,4.8494,4.8541,4.8565,4.8611,4.8627,4.8663,4.8647,4.8664,4.8669,4.8674,4.8679,4.8556,4.867,4.8669,4.8669,4.8669,4.8668,0,4.8356,4.837,4.8406,4.8442,4.8473,4.8457,4.8484,4.8511,4.8552,4.8575,4.8607,4.8655,4.8694,4.8707,4.8745,4.8772,4.8766,4.8782,4.878,4.8784,4.8691,4.8678,4.8786,4.8786,4.8786,4.8785,4.8785,4.8785,4.8419,4.8476,4.8479,4.8545,4.8559,4.8605,4.8622,4.8644,4.8663,4.8718,4.875,4.8758,4.8777,4.8816,4.8851,4.8854,4.8869,4.8888,4.8888,4.8802,4.879,4.8779,4.8766,4.8891,4.8891,4.8977,4.8978,4.8979]}]]